Regional Weather Roundup
Issued by NWS

Home | Current Version | Previous Version | Text Only | Print | Product List | Glossary On
Versions: 1 2 3 4 5 6 7 8 9 10 11 12 13 14 15 16 17 18 19 20 21 22 23 24 25 26 27 28 29 30 31 32 33 34 35 36 37 38 39 40 41 42 43 44 45 46 47 48 49 50
000
ASUS43 KMKX 020500
RWRWI

WISCONSIN REGIONAL WEATHER ROUNDUP
NATIONAL WEATHER SERVICE MILWAUKEE/SULLIVAN WI
1200 AM CDT SUN AUG 02 2015

NOTE: "FAIR" INDICATES FEW OR NO CLOUDS BELOW 12,000 FEET WITH NO
SIGNIFICANT WEATHER AND/OR OBSTRUCTIONS TO VISIBILITY.

WIZ001-002-006>008-014>016-023>028-020600-
NORTHWEST WISCONSIN

CITY           SKY/WX    TMP DP  RH WIND       PRES   REMARKS
SUPERIOR ARPT  CLEAR     64  59  83 SW3       29.71F
ASHLAND        PTCLDY    63  57  81 W5        29.73F
HAYWARD        CLEAR     66  58  75 CALM      29.77F
SIREN          CLEAR     69  61  75 CALM      29.76F
CUMBERLAND     CLEAR     63  61  94 CALM      29.78F THUNDER
RICE LAKE      CLEAR     67  61  81 SE5       29.79F THUNDER
CHETEK         CLEAR     68  64  88 E3        29.78F
LADYSMITH      MOCLDY    69  61  77 S7        29.81F
EAU CLAIRE     NOT AVBL
MENOMONIE      CLEAR     68  64  89 CALM      29.79S THUNDER
NEW RICHMOND   PTCLDY    69  67  93 S5        29.78S
OSCEOLA        PTCLDY    69  68  96 SE3       29.79F
$$

WIZ003>005-009-010-017-018-020600-
NORTH CENTRAL WISCONSIN

CITY           SKY/WX    TMP DP  RH WIND       PRES   REMARKS
MANITOWISH WTR PTCLDY    55  55 100 CALM      29.79F
ARBOR VITAE    CLEAR     63  56  79 CALM      29.80F
WOODRUFF       CLEAR     63  56  79 CALM      29.80F
RHINELANDER    CLEAR     66  56  70 SW8       29.81F
EAGLE RIVER    CLEAR     61  53  74 SW8       29.80S
LAND O LAKES   CLEAR     54  53  94 CALM      29.80F
PHILLIPS       CLEAR     64  58  78 SW5       29.79F
TOMAHAWK       CLEAR     60  56  87 CALM      29.82S
MEDFORD        PTCLDY    64  59  85 S5        29.83F
MERRILL        NOT AVBL
$$

WIZ029-030-035-036-043>047-020600-
CENTRAL WISCONSIN

CITY           SKY/WX    TMP DP  RH WIND       PRES   REMARKS
WAUSAU         PTCLDY    67  58  72 S7        29.81F
MOSINEE        PTCLDY    63  59  88 S5        29.84F
MARSHFIELD     CLEAR     64  58  80 SW3       29.83F
STEVENS POINT  PTCLDY    65  56  74 S3        29.84S
WAUPACA        CLEAR     64  58  81 CALM      29.83S
WAUTOMA        NOT AVBL
WISC RAPIDS    PTCLDY    66  59  78 CALM      29.84F
CAMP DOUGLAS   NOT AVBL
$$

WIZ011>013-019>022-031-037>040-048>050-020600-
NORTHEAST WISCONSIN

CITY           SKY/WX    TMP DP  RH WIND       PRES   REMARKS
ANTIGO         PTCLDY    60  55  84 SW3       29.83F
SHAWANO        PTCLDY    67  56  66 CALM      29.81F
OCONTO         CLEAR     61  56  84 CALM      29.79F
STURGEON BAY   PTCLDY    64  52  63 SW6       29.82S
GREEN BAY      CLEAR     62  56  80 SW3       29.81F
MANITOWOC      NOT AVBL
APPLETON       CLEAR     68  52  56 SW6       29.83F
CLINTONVILLE   CLEAR     64  54  68 SW5       29.81F
OSHKOSH        CLEAR     70  58  65 SW5       29.82F
$$

WIZ032>034-041-042-053>061-020600-
SOUTHWEST WISCONSIN

CITY           SKY/WX    TMP DP  RH WIND       PRES   REMARKS
LA CROSSE      PTCLDY    77  68  73 S13       29.81F
SPARTA         PTCLDY    67  61  81 CALM      29.84F
VIROQUA        PTCLDY    71  67  88 SW7       29.87F
BOSCOBEL       CLEAR     69  66  90 CALM      29.86S
PRAIRIE DU CHI CLEAR     75  68  78 CALM      29.86S
PLATTEVILLE    CLEAR     71  69  94 S6        29.90S
$$

WIZ056-057-062-063-064-067-068-020600-
SOUTH CENTRAL WISCONSIN

CITY           SKY/WX    TMP DP  RH WIND       PRES   REMARKS
REEDSBURG      NOT AVBL
BARABOO/DELLS  PTCLDY    71  61  70 SW7       29.86S
LONE ROCK      NOT AVBL
MINERAL POINT  PTCLDY    73  68  83 SW8       29.89F
MADISON        PTCLDY    76  66  71 SW7       29.86S
MIDDLETON      PTCLDY    75  65  70 SW12      29.87S
WATERTOWN      CLEAR     64  64 100 CALM      29.85S
MONROE         CLEAR     72  66  83 SW10      29.90S
JANESVILLE     CLEAR     72  68  88 SW5       29.88S
$$

WIZ051-052-058>065-066-070>072-020600-
SOUTHEAST WISCONSIN

CITY           SKY/WX    TMP DP  RH WIND       PRES   REMARKS
MILWAUKEE      CLEAR     70  61  73 SW5       29.85F
WAUKESHA       CLEAR     68  57  68 CALM      29.87F
MILWAUKEE/TIMM CLEAR     68  59  73 S3        29.86F
RACINE         CLEAR     70  63  78 SW6       29.87F
BURLINGTON     CLEAR     63  61  94 S5        29.87F
KENOSHA        CLEAR     70  65  84 SW8       29.87F
FOND DU LAC    CLEAR     69  59  70 SW7       29.84S
SHEBOYGAN      CLEAR     62  58  86 CALM      29.83F
WEST BEND      CLEAR     63  59  88 CALM      29.85S
JUNEAU         CLEAR     66  61  84 CALM      29.87S
$$

LSZ147-162-020600-
LAKE SUPERIOR

STATION/POSITION TIME  TEMP    WIND        PRES    WAVE
                       AIR SEA DIR/SP/G            HT/PER
                 (UTC) (F)     (DEG/KT/KT) (MB)    (FT/S)
W MID LAKE BUOY  0350   63 56  220/ 10/ 10 1005.4F   1/ 3
DEVILS ISLAND    0400   71     220/ 12/ 14 1005.8F
PORT WING        0440   69     160/  3/  5 1006.4F
SAXON HARBOR     0440   67                 1006.1F
$$

LMZ867-665-643>646-020600-
LAKE MICHIGAN

STATION/POSITION TIME  TEMP    WIND        PRES    WAVE
                       AIR SEA DIR/SP/G            HT/PER
                 (UTC) (F)     (DEG/KT/KT) (MB)    (FT/S)
CHAMBERS ISLAND  0400   71     200/  5/  7 1008.5F
S GREEN BAY BUOY 0430   70 69  220/ 10/ 14 1010.3
N MID LAKE BUOY  0350   70 69  210/ 12/ 14 1008.0F   2/ 4
NORTHPORT PIER   0400   69     180/  4/  6 1008.5F
SISTER BAY       0444   73     230/  8/  9   N/A
ALGOMA LAKESHORE 0412             CALM       N/A
KEWAUNEE LAKESHO 0400   67     300/  3/  4 1009.3F
SHEBOYGAN LAKESH 0400   69     210/  5/  5 1010.4F
PORT WASHINGTON  0440   67     250/  2/  4 1011.2F
ATWATER BUOY     0400   70 64  190/  8/  8 1012.4F
MILWAUKEE LAKESH 0400   72     200/  4/  5   N/A
KENOSHA   LAKESH 0400   76     240/  7/ 11 1011.2F
$$

TC  - TEMPERATURE IN CELSIUS
VSB - VISIBILITY IN STATUTE MILES
WCI - WIND CHILL INDEX
HX  - HEAT INDEX




USA.gov is the U.S. government's official web portal to all federal, state and local government web resources and services.